VTK609 URMM-USCC

Flight info

Callsign VTK609
Flight time 2h 31m
Altitude 35000
Route URILU5L URILU R227 BEMES DCT VULFI DCT TUVGI DCT RALAN DCT AGILA N996 KODUM Z210 EKTOB L992 MGR T797 GERSI GERSI2C
Aircraft B739/M-SDE2E3FGHIRWXY/LB1

Departure

Time 2026-04-28 10:25
Airport Mineralnye Vody Airport (URMM)

Arrival

Time 2026-04-28 12:56
Airport Kurchatov Chelyabinsk International Airport (USCC)
Time Latitude Longitude Altitude Speed Heading
2026-04-28 09:57 44.21737 43.09029 1050 ft 0 kts 212°
2026-04-28 10:00 44.21737 43.09030 1050 ft 0 kts 212°
2026-04-28 10:13 44.21746 43.09037 1050 ft 2 kts 214°
2026-04-28 10:13 44.21759 43.09051 1050 ft 2 kts 219°
2026-04-28 10:14 44.21772 43.09066 1051 ft 2 kts 225°
2026-04-28 10:14 44.21782 43.09083 1051 ft 2 kts 236°
2026-04-28 10:14 44.21790 43.09103 1051 ft 2 kts 256°
2026-04-28 10:14 44.21791 43.09126 1053 ft 2 kts 286°
2026-04-28 10:15 44.21786 43.09143 1052 ft 1 kts 302°
2026-04-28 10:15 44.21785 43.09144 1052 ft 0 kts 302°
2026-04-28 10:18 44.21787 43.09140 1052 ft 2 kts 302°
2026-04-28 10:18 44.21803 43.09106 1051 ft 7 kts 302°
2026-04-28 10:18 44.21850 43.09065 1050 ft 9 kts
2026-04-28 10:19 44.21904 43.09100 1050 ft 9 kts 29°
2026-04-28 10:19 44.21959 43.09128 1050 ft 8 kts 358°
2026-04-28 10:19 44.22012 43.09098 1050 ft 8 kts 333°
2026-04-28 10:19 44.22066 43.09059 1051 ft 10 kts 332°
2026-04-28 10:20 44.22138 43.09005 1052 ft 13 kts 332°
2026-04-28 10:20 44.22229 43.08938 1052 ft 16 kts 332°
2026-04-28 10:20 44.22338 43.08858 1051 ft 16 kts 332°
2026-04-28 10:20 44.22421 43.08791 1052 ft 14 kts 324°
2026-04-28 10:21 44.22491 43.08705 1055 ft 13 kts 312°
2026-04-28 10:21 44.22548 43.08590 1053 ft 16 kts 302°
2026-04-28 10:21 44.22609 43.08454 1053 ft 17 kts 302°
2026-04-28 10:21 44.22681 43.08298 1049 ft 21 kts 302°
2026-04-28 10:22 44.22761 43.08119 1049 ft 21 kts 302°
2026-04-28 10:22 44.22841 43.07944 1047 ft 22 kts 302°
2026-04-28 10:22 44.22917 43.07779 1050 ft 17 kts 302°
2026-04-28 10:22 44.22967 43.07638 1050 ft 15 kts 291°
2026-04-28 10:23 44.22995 43.07532 1051 ft 9 kts 290°
2026-04-28 10:23 44.23017 43.07470 1053 ft 6 kts 313°
2026-04-28 10:23 44.23042 43.07489 1051 ft 4 kts 73°
2026-04-28 10:23 44.23035 43.07514 1051 ft 3 kts 118°
2026-04-28 10:24 44.23034 43.07516 1051 ft 0 kts 119°
2026-04-28 10:24 44.23029 43.07530 1051 ft 8 kts 120°
2026-04-28 10:24 44.22887 43.07843 1049 ft 72 kts 122°
2026-04-28 10:25 44.22508 43.08677 1054 ft 129 kts 122°
2026-04-28 10:25 44.21939 43.09914 1115 ft 166 kts 124°
2026-04-28 10:25 44.21313 43.11247 1744 ft 166 kts 123°
2026-04-28 10:25 44.20669 43.12664 2298 ft 176 kts 123°
2026-04-28 10:26 44.20030 43.14106 3019 ft 174 kts 122°
2026-04-28 10:26 44.19355 43.15586 3417 ft 192 kts 122°
2026-04-28 10:26 44.18626 43.17266 3642 ft 210 kts 122°
2026-04-28 10:26 44.17798 43.19066 3909 ft 229 kts 123°
2026-04-28 10:27 44.16907 43.21013 4232 ft 248 kts 123°
2026-04-28 10:27 44.15949 43.23112 4820 ft 259 kts 123°
2026-04-28 10:27 44.14973 43.25244 5597 ft 263 kts 123°
2026-04-28 10:27 44.13978 43.27411 6336 ft 267 kts 123°
2026-04-28 10:28 44.12975 43.29597 6947 ft 274 kts 123°
2026-04-28 10:28 44.12270 43.32100 7523 ft 283 kts 100°
2026-04-28 10:28 44.12128 43.34858 8176 ft 288 kts 86°
2026-04-28 10:29 44.12811 43.40478 9419 ft 302 kts 78°
2026-04-28 10:29 44.13227 43.43334 10037 ft 308 kts 79°
2026-04-28 10:29 44.13646 43.46301 10502 ft 319 kts 79°
2026-04-28 10:29 44.14072 43.49455 10655 ft 341 kts 79°
2026-04-28 10:30 44.14510 43.52802 10823 ft 361 kts 80°
2026-04-28 10:30 44.14958 43.56304 11241 ft 371 kts 80°
2026-04-28 10:30 44.15409 43.59872 11817 ft 376 kts 80°
2026-04-28 10:30 44.15863 43.63483 12479 ft 379 kts 80°
2026-04-28 10:31 44.16312 43.67073 13088 ft 383 kts 80°
2026-04-28 10:31 44.16734 43.70759 13161 ft 387 kts 86°
2026-04-28 10:31 44.16524 43.74508 13326 ft 391 kts 101°
2026-04-28 10:31 44.16043 43.78263 14078 ft 391 kts 101°
2026-04-28 10:32 44.15587 43.81953 14801 ft 391 kts 101°
2026-04-28 10:32 44.15136 43.85720 15416 ft 395 kts 101°
2026-04-28 10:32 44.14689 43.89526 16030 ft 399 kts 101°
2026-04-28 10:32 44.14248 43.93337 16629 ft 404 kts 101°
2026-04-28 10:33 44.13798 43.97233 17215 ft 408 kts 101°
2026-04-28 10:33 44.13345 44.01160 17814 ft 412 kts 101°
2026-04-28 10:33 44.12891 44.05090 18399 ft 416 kts 101°
2026-04-28 10:33 44.12426 44.09098 18924 ft 420 kts 101°
2026-04-28 10:34 44.11955 44.13139 19465 ft 423 kts 101°
2026-04-28 10:34 44.11480 44.17204 20005 ft 426 kts 101°
2026-04-28 10:34 44.11002 44.21288 20536 ft 429 kts 101°
2026-04-28 10:34 44.10516 44.25409 21057 ft 433 kts 101°
2026-04-28 10:35 44.10032 44.29503 21591 ft 435 kts 101°
2026-04-28 10:35 44.09537 44.33674 22110 ft 439 kts 101°
2026-04-28 10:35 44.09035 44.37888 22605 ft 442 kts 102°
2026-04-28 10:35 44.08527 44.42139 23076 ft 447 kts 102°
2026-04-28 10:36 44.08015 44.46420 23557 ft 450 kts 102°
2026-04-28 10:36 44.07498 44.50742 24000 ft 453 kts 102°
2026-04-28 10:36 44.06982 44.55031 24415 ft 456 kts 102°
2026-04-28 10:36 44.06456 44.59418 24837 ft 459 kts 102°
2026-04-28 10:37 44.05976 44.63832 25237 ft 462 kts 101°
2026-04-28 10:37 44.05526 44.68272 25635 ft 465 kts 101°
2026-04-28 10:37 44.05084 44.72741 26048 ft 467 kts 101°
2026-04-28 10:37 44.04641 44.77180 26440 ft 470 kts 101°
2026-04-28 10:38 44.04183 44.81713 26833 ft 473 kts 101°
2026-04-28 10:38 44.03716 44.86260 27194 ft 476 kts 101°
2026-04-28 10:38 44.03240 44.90842 27545 ft 479 kts 101°
2026-04-28 10:38 44.02758 44.95447 27923 ft 482 kts 101°
2026-04-28 10:39 44.02279 45.00010 28299 ft 484 kts 101°
2026-04-28 10:39 44.01790 45.04648 28667 ft 487 kts 102°
2026-04-28 10:39 44.01294 45.09333 29006 ft 490 kts 102°
2026-04-28 10:39 44.00795 45.14040 29360 ft 491 kts 101°
2026-04-28 10:40 44.00298 45.18715 29755 ft 493 kts 102°
2026-04-28 10:40 43.99791 45.23433 30107 ft 495 kts 102°
2026-04-28 10:40 43.99447 45.26577 30315 ft 496 kts 102°
2026-04-28 10:40 43.98747 45.32882 30766 ft 497 kts 102°
2026-04-28 10:41 43.98218 45.37614 31231 ft 494 kts 102°
2026-04-28 10:41 43.97863 45.40786 31562 ft 491 kts 102°
2026-04-28 10:41 43.97343 45.45421 32007 ft 489 kts 102°
2026-04-28 10:41 43.96818 45.50086 32387 ft 488 kts 102°
2026-04-28 10:42 43.96292 45.54748 32700 ft 488 kts 102°
2026-04-28 10:42 43.95767 45.59390 33195 ft 483 kts 102°
2026-04-28 10:42 43.95252 45.63932 33680 ft 480 kts 103°
2026-04-28 10:42 43.94729 45.68517 34046 ft 479 kts 103°
2026-04-28 10:43 43.94204 45.73094 34324 ft 479 kts 103°
2026-04-28 10:43 43.93685 45.77615 34542 ft 480 kts 103°
2026-04-28 10:43 43.93157 45.82198 34757 ft 480 kts 103°
2026-04-28 10:43 43.92638 45.86737 35015 ft 480 kts 102°
2026-04-28 10:44 43.92375 45.91376 35231 ft 485 kts 92°
2026-04-28 10:44 43.92960 46.00791 35204 ft 489 kts 86°
2026-04-28 10:45 43.93736 46.10092 35211 ft 484 kts 86°
2026-04-28 10:45 43.94459 46.19376 35217 ft 480 kts 86°
2026-04-28 10:46 43.95124 46.28582 35225 ft 480 kts 87°
2026-04-28 10:46 43.95771 46.37893 35230 ft 488 kts 87°
2026-04-28 10:47 43.96416 46.47242 35222 ft 489 kts 87°
2026-04-28 10:47 43.97061 46.56665 35225 ft 490 kts 87°
2026-04-28 10:48 43.97695 46.66029 35215 ft 489 kts 87°
2026-04-28 10:48 43.98324 46.75435 35224 ft 489 kts 87°
2026-04-28 10:49 43.98946 46.84862 35222 ft 488 kts 87°
2026-04-28 10:49 43.99556 46.94225 35222 ft 487 kts 87°
2026-04-28 10:50 44.00160 47.03606 35227 ft 486 kts 87°
2026-04-28 10:50 44.00751 47.12916 35230 ft 486 kts 87°
2026-04-28 10:51 44.01339 47.22300 35231 ft 485 kts 87°
2026-04-28 10:51 44.01915 47.31610 35228 ft 485 kts 87°
2026-04-28 10:52 44.02483 47.40927 35241 ft 484 kts 87°
2026-04-28 10:52 44.03043 47.50231 35232 ft 484 kts 87°
2026-04-28 10:53 44.03596 47.59546 35234 ft 484 kts 87°
2026-04-28 10:53 44.04145 47.68918 35234 ft 484 kts 88°
2026-04-28 10:54 44.04679 47.78180 35237 ft 484 kts 88°
2026-04-28 10:54 44.05212 47.87546 35243 ft 484 kts 88°
2026-04-28 10:55 44.05734 47.96854 35233 ft 483 kts 88°
2026-04-28 10:55 44.06248 48.06153 35233 ft 483 kts 88°
2026-04-28 10:56 44.06754 48.15441 35234 ft 483 kts 88°
2026-04-28 10:56 44.07255 48.24776 35234 ft 482 kts 88°
2026-04-28 10:57 44.07747 48.34069 35237 ft 482 kts 88°
2026-04-28 10:57 44.08235 48.43336 35233 ft 482 kts 88°
2026-04-28 10:58 44.08722 48.52662 35220 ft 481 kts 88°
2026-04-28 10:58 44.09198 48.61907 35228 ft 481 kts 88°
2026-04-28 10:59 44.09665 48.71155 35231 ft 480 kts 88°
2026-04-28 10:59 44.10127 48.80442 35226 ft 480 kts 88°
2026-04-28 11:00 44.10579 48.89695 35228 ft 480 kts 88°
2026-04-28 11:00 44.11025 48.98972 35227 ft 479 kts 88°
2026-04-28 11:01 44.11463 49.08201 35229 ft 480 kts 88°
2026-04-28 11:01 44.11910 49.17458 35220 ft 480 kts 88°
2026-04-28 11:02 44.12431 49.26697 35225 ft 479 kts 87°
2026-04-28 11:02 44.12948 49.35943 35222 ft 479 kts 87°
2026-04-28 11:03 44.13447 49.45198 35222 ft 479 kts 87°
2026-04-28 11:03 44.14824 49.54303 35217 ft 482 kts 69°
2026-04-28 11:04 44.17403 49.62907 35226 ft 482 kts 67°
2026-04-28 11:04 44.20007 49.71474 35220 ft 482 kts 68°
2026-04-28 11:05 44.22580 49.80124 35210 ft 481 kts 68°
2026-04-28 11:05 44.25100 49.88725 35215 ft 481 kts 69°
2026-04-28 11:06 44.27614 49.97362 35214 ft 480 kts 69°
2026-04-28 11:06 44.30131 50.06033 35210 ft 480 kts 69°
2026-04-28 11:07 44.32620 50.14632 35208 ft 480 kts 69°
2026-04-28 11:07 44.35124 50.23312 35208 ft 480 kts 69°
2026-04-28 11:08 44.37609 50.31956 35205 ft 479 kts 69°
2026-04-28 11:08 44.40086 50.40598 35195 ft 479 kts 69°
2026-04-28 11:09 44.42552 50.49235 35200 ft 479 kts 69°
2026-04-28 11:09 44.45016 50.57899 35198 ft 480 kts 69°
2026-04-28 11:10 44.47488 50.66616 35200 ft 480 kts 69°
2026-04-28 11:10 44.49933 50.75270 35198 ft 480 kts 69°
2026-04-28 11:11 44.52389 50.83995 35199 ft 480 kts 69°
2026-04-28 11:11 44.54818 50.92653 35198 ft 480 kts 69°
2026-04-28 11:12 44.57261 51.01392 35193 ft 480 kts 69°
2026-04-28 11:12 44.59686 51.10100 35197 ft 480 kts 69°
2026-04-28 11:13 44.62102 51.18805 35193 ft 480 kts 69°
2026-04-28 11:13 44.64526 51.27568 35194 ft 480 kts 70°
2026-04-28 11:14 44.66930 51.36293 35185 ft 480 kts 70°
2026-04-28 11:14 44.69329 51.45029 35185 ft 481 kts 70°
2026-04-28 11:15 44.71739 51.53838 35186 ft 481 kts 70°
2026-04-28 11:15 44.74125 51.62594 35181 ft 481 kts 70°
2026-04-28 11:16 44.76522 51.71421 35187 ft 481 kts 70°
2026-04-28 11:16 44.78891 51.80170 35185 ft 481 kts 70°
2026-04-28 11:17 44.81773 51.88697 35179 ft 481 kts 52°
2026-04-28 11:17 44.83962 51.92198 35187 ft 480 kts 41°
2026-04-28 11:17 44.86590 51.95070 35176 ft 478 kts 30°
2026-04-28 11:18 44.92286 51.99859 35188 ft 478 kts 28°
2026-04-28 11:18 44.98026 52.04658 35185 ft 479 kts 29°
2026-04-28 11:19 45.03745 52.09541 35188 ft 479 kts 30°
2026-04-28 11:19 45.09424 52.14448 35187 ft 480 kts 30°
2026-04-28 11:20 45.15134 52.19400 35196 ft 480 kts 30°
2026-04-28 11:20 45.20805 52.24327 35183 ft 480 kts 30°
2026-04-28 11:21 45.26514 52.29296 35183 ft 479 kts 30°
2026-04-28 11:21 45.32173 52.34233 35187 ft 478 kts 30°
2026-04-28 11:22 45.37859 52.39205 35189 ft 478 kts 30°
2026-04-28 11:22 45.43503 52.44153 35187 ft 477 kts 30°
2026-04-28 11:23 45.49133 52.49099 35200 ft 476 kts 30°
2026-04-28 11:23 45.54794 52.54084 35184 ft 476 kts 30°
2026-04-28 11:24 45.60407 52.59045 35184 ft 476 kts 30°
2026-04-28 11:24 45.66019 52.64021 35183 ft 476 kts 30°
2026-04-28 11:25 45.71644 52.69020 35180 ft 476 kts 30°
2026-04-28 11:25 45.76335 52.73197 35181 ft 476 kts 30°
2026-04-28 11:26 45.81959 52.78217 35179 ft 477 kts 30°
2026-04-28 11:26 45.88528 52.84096 35181 ft 478 kts 30°
2026-04-28 11:27 45.93235 52.88318 35176 ft 478 kts 30°
2026-04-28 11:27 45.98893 52.93406 35175 ft 479 kts 30°
2026-04-28 11:28 46.04519 52.98477 35177 ft 479 kts 30°
2026-04-28 11:28 46.10176 53.03586 35169 ft 480 kts 31°
2026-04-28 11:29 46.15839 53.08714 35174 ft 480 kts 31°
2026-04-28 11:29 46.21489 53.13844 35169 ft 480 kts 31°
2026-04-28 11:30 46.27124 53.18975 35172 ft 481 kts 31°
2026-04-28 11:30 46.35590 53.26705 35164 ft 481 kts 31°
2026-04-28 11:31 46.41272 53.31910 35165 ft 481 kts 31°
2026-04-28 11:31 46.46918 53.37094 35164 ft 481 kts 31°
2026-04-28 11:32 46.52578 53.42305 35152 ft 481 kts 31°
2026-04-28 11:32 46.58225 53.47518 35153 ft 481 kts 31°
2026-04-28 11:33 46.63883 53.52752 35156 ft 481 kts 31°
2026-04-28 11:33 46.69504 53.57966 35148 ft 482 kts 31°
2026-04-28 11:34 46.75176 53.63240 35148 ft 482 kts 31°
2026-04-28 11:34 46.80821 53.68503 35144 ft 482 kts 31°
2026-04-28 11:35 46.86488 53.73800 35144 ft 482 kts 31°
2026-04-28 11:35 46.92109 53.79067 35154 ft 482 kts 31°
2026-04-28 11:36 46.97780 53.84392 35141 ft 482 kts 31°
2026-04-28 11:36 47.03406 53.89679 35146 ft 483 kts 31°
2026-04-28 11:37 47.09086 53.95026 35149 ft 484 kts 31°
2026-04-28 11:37 47.14737 54.00362 35143 ft 485 kts 31°
2026-04-28 11:38 47.20424 54.05747 35143 ft 485 kts 31°
2026-04-28 11:38 47.26076 54.11113 35145 ft 485 kts 31°
2026-04-28 11:39 47.31757 54.16521 35144 ft 486 kts 31°
2026-04-28 11:39 47.37414 54.21918 35149 ft 486 kts 31°
2026-04-28 11:40 47.43108 54.27370 35147 ft 487 kts 32°
2026-04-28 11:40 47.48778 54.32817 35142 ft 487 kts 32°
2026-04-28 11:41 47.54474 54.38305 35143 ft 488 kts 32°
2026-04-28 11:41 47.60137 54.43774 35142 ft 488 kts 32°
2026-04-28 11:42 47.65835 54.49292 35138 ft 488 kts 32°
2026-04-28 11:42 47.71523 54.54815 35146 ft 489 kts 32°
2026-04-28 11:43 47.77186 54.60327 35158 ft 489 kts 32°
2026-04-28 11:43 47.82901 54.65906 35146 ft 489 kts 32°
2026-04-28 11:44 47.88572 54.71456 35145 ft 490 kts 32°
2026-04-28 11:44 47.94263 54.77040 35141 ft 490 kts 32°
2026-04-28 11:45 47.99943 54.82625 35143 ft 490 kts 32°
2026-04-28 11:45 48.05672 54.88272 35136 ft 491 kts 32°
2026-04-28 11:46 48.11364 54.93900 35141 ft 491 kts 32°
2026-04-28 11:46 48.17044 54.99531 35155 ft 491 kts 32°
2026-04-28 11:47 48.22738 55.05192 35142 ft 492 kts 32°
2026-04-28 11:47 48.28430 55.10866 35141 ft 493 kts 32°
2026-04-28 11:48 48.34135 55.16569 35147 ft 493 kts 32°
2026-04-28 11:48 48.39847 55.22294 35131 ft 494 kts 33°
2026-04-28 11:49 48.45541 55.28018 35141 ft 494 kts 33°
2026-04-28 11:49 48.51287 55.33809 35138 ft 494 kts 33°
2026-04-28 11:50 48.56973 55.39556 35141 ft 494 kts 33°
2026-04-28 11:50 48.62709 55.45365 35133 ft 494 kts 33°
2026-04-28 11:51 48.68419 55.51164 35143 ft 494 kts 33°
2026-04-28 11:51 48.74092 55.56942 35140 ft 494 kts 33°
2026-04-28 11:52 48.79807 55.62779 35139 ft 493 kts 33°
2026-04-28 11:52 48.85501 55.68609 35130 ft 493 kts 33°
2026-04-28 11:53 48.91155 55.74417 35148 ft 493 kts 33°
2026-04-28 11:53 48.96860 55.80296 35172 ft 494 kts 33°
2026-04-28 11:54 49.02542 55.86169 35151 ft 495 kts 33°
2026-04-28 11:54 49.08259 55.92094 35136 ft 496 kts 33°
2026-04-28 11:55 49.13974 55.98034 35148 ft 497 kts 33°
2026-04-28 11:55 49.19676 56.03976 35142 ft 497 kts 33°
2026-04-28 11:56 49.25403 56.09963 35147 ft 498 kts 33°
2026-04-28 11:56 49.31096 56.15931 35136 ft 498 kts 34°
2026-04-28 11:57 49.36831 56.21960 35175 ft 499 kts 34°
2026-04-28 11:57 49.42540 56.27979 35150 ft 500 kts 34°
2026-04-28 11:58 49.48286 56.34054 35149 ft 500 kts 34°
2026-04-28 11:58 49.53996 56.40110 35146 ft 501 kts 34°
2026-04-28 11:59 49.59755 56.46235 35147 ft 501 kts 34°
2026-04-28 11:59 49.65469 56.52330 35140 ft 501 kts 34°
2026-04-28 12:00 49.71199 56.58459 35144 ft 500 kts 34°
2026-04-28 12:00 49.76935 56.64603 35172 ft 500 kts 34°
2026-04-28 12:01 49.82643 56.70727 35147 ft 501 kts 34°
2026-04-28 12:01 49.88388 56.76910 35151 ft 501 kts 34°
2026-04-28 12:02 49.94079 56.83056 35145 ft 501 kts 34°
2026-04-28 12:02 49.99827 56.89282 35145 ft 502 kts 34°
2026-04-28 12:03 50.05562 56.95512 35145 ft 502 kts 34°
2026-04-28 12:03 50.11252 57.01711 35145 ft 502 kts 34°
2026-04-28 12:04 50.16979 57.07971 35141 ft 502 kts 34°
2026-04-28 12:04 50.22713 57.14255 35151 ft 503 kts 34°
2026-04-28 12:05 50.28735 57.19630 35156 ft 500 kts 18°
2026-04-28 12:05 50.35371 57.22988 35157 ft 499 kts 14°
2026-04-28 12:06 50.41969 57.26178 35146 ft 500 kts 14°
2026-04-28 12:06 50.48636 57.29512 35148 ft 501 kts 15°
2026-04-28 12:07 50.55244 57.32884 35155 ft 502 kts 15°
2026-04-28 12:07 50.61934 57.36316 35152 ft 503 kts 15°
2026-04-28 12:08 50.68560 57.39720 35140 ft 503 kts 15°
2026-04-28 12:08 50.75252 57.43166 35130 ft 504 kts 15°
2026-04-28 12:09 50.81880 57.46588 35132 ft 503 kts 15°
2026-04-28 12:09 50.88536 57.50027 35143 ft 504 kts 14°
2026-04-28 12:10 50.95270 57.53232 35136 ft 505 kts 13°
2026-04-28 12:10 51.02007 57.56328 35133 ft 505 kts 13°
2026-04-28 12:11 51.08754 57.59478 35126 ft 505 kts 13°
2026-04-28 12:11 51.14369 57.62132 35128 ft 505 kts 13°
2026-04-28 12:12 51.21084 57.65320 35125 ft 506 kts 13°
2026-04-28 12:12 51.27869 57.68547 35127 ft 507 kts 13°
2026-04-28 12:13 51.34625 57.71768 35120 ft 507 kts 13°
2026-04-28 12:13 51.41362 57.74980 35118 ft 507 kts 13°
2026-04-28 12:14 51.48115 57.78207 35116 ft 506 kts 13°
2026-04-28 12:14 51.54873 57.81447 35126 ft 508 kts 13°
2026-04-28 12:15 51.61662 57.84714 35112 ft 508 kts 13°
2026-04-28 12:15 51.68427 57.87980 35111 ft 509 kts 13°
2026-04-28 12:16 51.75195 57.91258 35102 ft 508 kts 13°
2026-04-28 12:16 51.81949 57.94539 35137 ft 508 kts 13°
2026-04-28 12:17 51.88748 57.97852 35109 ft 510 kts 13°
2026-04-28 12:17 51.95534 58.01169 35104 ft 511 kts 13°
2026-04-28 12:18 52.02361 58.04518 35082 ft 512 kts 14°
2026-04-28 12:18 52.09167 58.07885 35086 ft 511 kts 14°
2026-04-28 12:19 52.16004 58.11286 35095 ft 511 kts 14°
2026-04-28 12:19 52.22799 58.14675 35085 ft 511 kts 14°
2026-04-28 12:20 52.29574 58.18063 35089 ft 511 kts 14°
2026-04-28 12:20 52.36393 58.21484 35084 ft 511 kts 14°
2026-04-28 12:21 52.43175 58.24898 35080 ft 510 kts 14°
2026-04-28 12:21 52.49929 58.28308 35099 ft 511 kts 14°
2026-04-28 12:22 52.56747 58.31761 35083 ft 512 kts 14°
2026-04-28 12:22 52.63539 58.35241 35085 ft 513 kts 14°
2026-04-28 12:23 52.70364 58.38788 35068 ft 513 kts 14°
2026-04-28 12:23 52.77164 58.42334 35058 ft 513 kts 14°
2026-04-28 12:24 52.83980 58.45894 35073 ft 515 kts 14°
2026-04-28 12:24 52.90798 58.49463 35068 ft 515 kts 14°
2026-04-28 12:25 52.97668 58.53072 35065 ft 516 kts 14°
2026-04-28 12:25 53.04506 58.56677 35047 ft 516 kts 14°
2026-04-28 12:26 53.11339 58.60291 35050 ft 516 kts 14°
2026-04-28 12:26 53.18188 58.63926 35065 ft 518 kts 14°
2026-04-28 12:27 53.25024 58.67566 35056 ft 518 kts 14°
2026-04-28 12:27 53.31904 58.71242 35052 ft 519 kts 14°
2026-04-28 12:28 53.38773 58.75063 35035 ft 520 kts 20°
2026-04-28 12:28 53.44999 58.81145 35046 ft 521 kts 37°
2026-04-28 12:29 53.53643 58.92234 35069 ft 523 kts 37°
2026-04-28 12:30 53.59452 58.99616 35018 ft 523 kts 37°
2026-04-28 12:30 53.65287 59.06958 35031 ft 523 kts 37°
2026-04-28 12:31 53.71129 59.14322 35031 ft 523 kts 37°
2026-04-28 12:31 53.76936 59.21678 35039 ft 523 kts 37°
2026-04-28 12:32 53.82753 59.29080 35029 ft 523 kts 37°
2026-04-28 12:32 53.88573 59.36509 35022 ft 522 kts 37°
2026-04-28 12:33 53.94329 59.43904 35036 ft 521 kts 37°
2026-04-28 12:33 54.00141 59.51424 34565 ft 531 kts 38°
2026-04-28 12:33 54.03100 59.55263 33831 ft 534 kts 38°
2026-04-28 12:34 54.06021 59.59058 33013 ft 536 kts 38°
2026-04-28 12:34 54.08988 59.62919 32200 ft 536 kts 38°
2026-04-28 12:34 54.11927 59.66749 31727 ft 529 kts 38°
2026-04-28 12:34 54.14854 59.70570 31141 ft 525 kts 38°
2026-04-28 12:35 54.17750 59.74357 30606 ft 522 kts 38°
2026-04-28 12:35 54.20624 59.78121 30061 ft 519 kts 38°
2026-04-28 12:35 54.23445 59.81815 29416 ft 516 kts 38°
2026-04-28 12:35 54.26286 59.85538 28880 ft 511 kts 38°
2026-04-28 12:36 54.29095 59.89227 28340 ft 506 kts 38°
2026-04-28 12:36 54.31876 59.92886 27788 ft 501 kts 38°
2026-04-28 12:36 54.34624 59.96508 27296 ft 496 kts 38°
2026-04-28 12:36 54.37352 60.00108 26765 ft 492 kts 38°
2026-04-28 12:37 54.39970 60.03766 26250 ft 488 kts 42°
2026-04-28 12:37 54.42492 60.07649 25797 ft 485 kts 44°
2026-04-28 12:37 54.44950 60.11589 25259 ft 483 kts 44°
2026-04-28 12:37 54.47395 60.15553 24729 ft 480 kts 44°
2026-04-28 12:38 54.49824 60.19482 24230 ft 477 kts 44°
2026-04-28 12:38 54.52247 60.23374 23710 ft 475 kts 44°
2026-04-28 12:38 54.54669 60.27245 23107 ft 472 kts 44°
2026-04-28 12:38 54.57045 60.31034 22582 ft 468 kts 44°
2026-04-28 12:39 54.59424 60.34824 22098 ft 463 kts 44°
2026-04-28 12:39 54.61790 60.38597 21594 ft 459 kts 44°
2026-04-28 12:39 54.64128 60.42334 21106 ft 456 kts 44°
2026-04-28 12:39 54.66440 60.46040 20623 ft 452 kts 44°
2026-04-28 12:40 54.68738 60.49729 20151 ft 448 kts 44°
2026-04-28 12:40 54.71017 60.53394 19670 ft 445 kts 44°
2026-04-28 12:40 54.73280 60.57027 19193 ft 442 kts 43°
2026-04-28 12:40 54.75708 60.60260 18718 ft 436 kts 32°
2026-04-28 12:41 54.78205 60.62991 18216 ft 424 kts 30°
2026-04-28 12:41 54.80707 60.65594 17706 ft 414 kts 30°
2026-04-28 12:41 54.83175 60.68161 17279 ft 411 kts 30°
2026-04-28 12:41 54.85604 60.70733 16811 ft 409 kts 31°
2026-04-28 12:42 54.88019 60.73339 16361 ft 407 kts 31°
2026-04-28 12:42 54.90414 60.75957 15952 ft 405 kts 32°
2026-04-28 12:42 54.92795 60.78581 15485 ft 404 kts 32°
2026-04-28 12:42 54.95170 60.81208 15003 ft 403 kts 32°
2026-04-28 12:43 54.97537 60.83831 14553 ft 402 kts 32°
2026-04-28 12:43 54.99871 60.86422 14110 ft 401 kts 32°
2026-04-28 12:43 55.02217 60.89026 13638 ft 400 kts 32°
2026-04-28 12:43 55.04549 60.91618 13134 ft 394 kts 32°
2026-04-28 12:44 55.06841 60.94169 12669 ft 387 kts 32°
2026-04-28 12:44 55.09236 60.96262 12203 ft 382 kts 11°
2026-04-28 12:44 55.11821 60.96765 11762 ft 370 kts 350°
2026-04-28 12:44 55.14277 60.95948 11305 ft 358 kts 335°
2026-04-28 12:45 55.16656 60.94678 10871 ft 354 kts 334°
2026-04-28 12:45 55.18973 60.93387 10481 ft 343 kts 334°
2026-04-28 12:45 55.21192 60.92161 10276 ft 326 kts 334°
2026-04-28 12:45 55.23304 60.91009 10169 ft 310 kts 333°
2026-04-28 12:46 55.25321 60.89915 10028 ft 297 kts 333°
2026-04-28 12:46 55.27263 60.88862 9775 ft 289 kts 333°
2026-04-28 12:46 55.29164 60.87835 9509 ft 280 kts 333°
2026-04-28 12:46 55.30979 60.86857 9252 ft 272 kts 333°
2026-04-28 12:47 55.32763 60.85900 9019 ft 262 kts 333°
2026-04-28 12:47 55.34479 60.84979 8753 ft 255 kts 333°
2026-04-28 12:47 55.36165 60.84071 8479 ft 249 kts 333°
2026-04-28 12:47 55.37836 60.83349 8217 ft 252 kts 351°
2026-04-28 12:48 55.39562 60.84106 7985 ft 262 kts 31°
2026-04-28 12:48 55.40778 60.86374 7672 ft 257 kts 70°
2026-04-28 12:48 55.41147 60.89322 7411 ft 241 kts 93°
2026-04-28 12:48 55.41263 60.92238 7131 ft 237 kts 92°
2026-04-28 12:49 55.41374 60.95112 6852 ft 233 kts 92°
2026-04-28 12:49 55.41486 60.97939 6572 ft 229 kts 91°
2026-04-28 12:49 55.41598 61.00708 6310 ft 225 kts 90°
2026-04-28 12:49 55.41712 61.03413 6082 ft 218 kts 90°
2026-04-28 12:50 55.41824 61.06040 5814 ft 213 kts 91°
2026-04-28 12:50 55.41933 61.08618 5535 ft 212 kts 94°
2026-04-28 12:50 55.42039 61.11192 5326 ft 215 kts 93°
2026-04-28 12:50 55.42149 61.13801 5067 ft 210 kts 93°
2026-04-28 12:51 55.42246 61.16357 4815 ft 206 kts 99°
2026-04-28 12:51 55.41843 61.18573 4581 ft 180 kts 140°
2026-04-28 12:51 55.40938 61.19979 4409 ft 172 kts 155°
2026-04-28 12:51 55.39925 61.21030 4213 ft 168 kts 158°
2026-04-28 12:52 55.38921 61.22033 4016 ft 168 kts 158°
2026-04-28 12:52 55.37902 61.23056 3821 ft 168 kts 158°
2026-04-28 12:52 55.36907 61.24061 3614 ft 161 kts 158°
2026-04-28 12:52 55.35959 61.25024 3419 ft 154 kts 158°
2026-04-28 12:53 55.35031 61.25965 3242 ft 154 kts 157°
2026-04-28 12:53 55.34108 61.26923 3066 ft 157 kts 150°
2026-04-28 12:53 55.33552 61.28628 2875 ft 171 kts 109°
2026-04-28 12:53 55.33395 61.29987 2799 ft 172 kts 112°
2026-04-28 12:54 55.33027 61.32701 2581 ft 170 kts 112°
2026-04-28 12:54 55.32761 61.34634 2321 ft 154 kts 112°
2026-04-28 12:54 55.32517 61.36380 2124 ft 145 kts 114°
2026-04-28 12:54 55.32277 61.38098 1934 ft 144 kts 113°
2026-04-28 12:55 55.32048 61.39748 1732 ft 137 kts 113°
2026-04-28 12:55 55.31813 61.41407 1507 ft 143 kts 110°
2026-04-28 12:55 55.31560 61.43140 1323 ft 151 kts 108°
2026-04-28 12:55 55.31337 61.44919 1126 ft 146 kts 110°
2026-04-28 12:56 55.31181 61.46054 968 ft 143 kts 111°
2026-04-28 12:56 55.30871 61.48252 774 ft 136 kts 110°
2026-04-28 12:56 55.30669 61.49707 751 ft 103 kts 104°
2026-04-28 12:56 55.30551 61.50548 749 ft 39 kts 104°
2026-04-28 12:57 55.30517 61.50789 749 ft 27 kts 104°
2026-04-28 12:57 55.30475 61.51089 748 ft 23 kts 103°
2026-04-28 12:57 55.30447 61.51298 749 ft 15 kts 103°
2026-04-28 12:57 55.30418 61.51416 748 ft 9 kts 142°
2026-04-28 12:58 55.30359 61.51416 748 ft 9 kts 193°
2026-04-28 12:58 55.30301 61.51393 747 ft 8 kts 194°
2026-04-28 12:58 55.30245 61.51368 747 ft 8 kts 194°
2026-04-28 12:58 55.30191 61.51345 745 ft 8 kts 194°
2026-04-28 12:59 55.30138 61.51322 746 ft 8 kts 193°
2026-04-28 12:59 55.30087 61.51301 747 ft 7 kts 193°
2026-04-28 12:59 55.30056 61.51238 744 ft 7 kts 264°
2026-04-28 12:59 55.30064 61.51152 747 ft 7 kts 281°
2026-04-28 13:00 55.30075 61.51071 748 ft 7 kts 284°
2026-04-28 13:00 55.30074 61.50993 746 ft 7 kts 231°
2026-04-28 13:00 55.30031 61.50963 745 ft 7 kts 194°
2026-04-28 13:00 55.29987 61.50943 746 ft 6 kts 195°
2026-04-28 13:01 55.29944 61.50923 746 ft 6 kts 193°
2026-04-28 13:01 55.29905 61.50907 747 ft 4 kts 193°
2026-04-28 13:01 55.29896 61.50904 746 ft 0 kts 193°